sat.trackr.live / text

‹ back to catalog

BEIDOU-2 G1

NORAD 36287 · 2010-001A

PAYLOAD ACTIVE UNKNOWN

§ Identity

Operator
Country
PRC
Launch date
2010-01-16
Launch site
XICLF
Launch vehicle
Mass (kg)
RCS (m²)
79.43

Purposes: comms

External: N2YO · Heavens-Above · Gunter

§ Orbital elements

Epoch: 2026-09-10T04:24:27.703872Z

Period
1,436.13 min
Inclination
4.4893°
Eccentricity
0.0002147
Mean motion
1.00269795 rev/d
Perigee alt
35,778.1 km
Apogee alt
35,796.2 km
Semi-major
42,165.3 km
B*
0.0000e+0
RAAN
60.0441°
Arg perigee
245.3737°
Mean anomaly
250.3901°
Rev number
6,102

§ Raw data

BEIDOU-2 G11 36287U 10001A   26253.18365398 -.00000297  00000+0  00000+0 0  99962 36287   4.4893  60.0441 0002147 245.3737 250.3901  1.00269795 61024

JSON: /api/v1/satellites/36287 · /tle

For live sub-satellite position, see the globe view (requires WebGL).

§ Visibility from observer

Set your observer location to see the next 7 days of passes ≥ 10°. The values pass through the URL so the page stays shareable.

No JS? Fill the form by hand. The geolocation button needs JavaScript.